Location: ????????
(56.1167°N, 38.6333°E)
Time: 20:47:53
(UTC+00:00)

Meteor 1-28 Rocket - Pass Details

Date: 18 November 2025
Orbit: 433 x 442 km, 97.6° (Epoch: 14 December)

Event Time Altitude Azimuth Distance (km) Brightness Sun altitude
Exits shadow 13:57:11 - 21° (NNE) 2,362 6.1 -6.3°
Reaches altitude 10° 13:59:07 10° 30° (NNE) 1,581 5.2 -6.5°
Maximum altitude 14:02:16 35° 98° (E) 742 3.6 -6.9°
Drops below altitude 10° 14:05:23 10° 166° (SSE) 1,570 5.8 -7.3°
Sets 14:07:31 0° 176° (S) 2,435 6.9 -7.6°
